Regional Weather Roundup
Issued by NWS

Home | Current Version | Previous Version | Text Only | Print | Product List | Glossary On
Versions: 1 2 3 4 5 6 7 8 9 10 11 12 13 14 15 16 17 18 19 20 21 22 23 24 25 26 27 28 29 30 31 32 33 34 35 36 37 38 39 40 41 42 43 44 45 46 47 48 49 50
000
ASUS45 KTFX 220710
RWRMT
MONTANA REGIONAL WEATHER ROUNDUP
NATIONAL WEATHER SERVICE GREAT FALLS MT
100 AM MDT TUE AUG 22 2017

NOTE: "FAIR" INDICATES FEW OR NO CLOUDS BELOW 12000 FEET WITH NO
SIGNIFICANT WEATHER AND/OR OBSTRUCTIONS TO VISIBILITY.

MTZ001>007-043-220800-
WEST OF THE DIVIDE

CITY           SKY/WX    TMP DP  RH WIND       PRES   REMARKS
KALISPELL      PTCLDY    48  43  82 CALM      30.12S
MISSOULA       PTCLDY    59  38  45 N5        30.15R
BUTTE          CLOUDY    50  35  56 SE3       30.27S
MULLAN PASS    CLEAR     61  34  36 CALM      30.28S
ANACONDA         N/A     55  36  47 SW6       30.23F
DEER LODGE       N/A     48  37  66 CALM      30.25S
EUREKA           N/A     55  37  50 MISG      30.12R
HAMILTON         N/A     57  41  54 S5        30.17S
LIBBY            N/A     57  43  58 SE3       30.10S
PLAINS           N/A     57  41  55 CALM      30.11S
RONAN            N/A     51  44  77 CALM      30.16S
$$

MTZ008-052>055-220800-
SOUTHWEST MONTANA

CITY           SKY/WX    TMP DP  RH WIND       PRES   REMARKS
BOZEMAN        CLEAR     51  37  58 E5        30.21S
DILLON         CLEAR     52  30  43 SE5       30.23S
W YELLOWSTONE  CLEAR     41  34  75 CALM      30.34S
ENNIS          MOCLDY    50  32  50 CALM      30.29S
THREE FORKS      N/A     48  37  65 CALM      30.17S
$$

MTZ009-010-012-014-046-048-049-054-220800-
EAST SLOPES AND CENTRAL MONTANA

CITY           SKY/WX    TMP DP  RH WIND       PRES   REMARKS
CUT BANK       MOCLDY    59  36  42 SE5       30.17S
GREAT FALLS    PTCLDY    60  34  37 E8        30.16S
MALMSTROM AFB  PTCLDY    60  35  39 E3        30.16R
HELENA         PTCLDY    62  36  37 CALM      30.17S
AUGUSTA          N/A     55  33  43 NE5       30.19F
BOWMANS CRNR     N/A     59  33  37 CALM      30.17S
CHOTEAU          N/A     57  36  44 N7        30.19S
CONRAD           N/A     50  39  65 N3        30.18S
$$

MTZ011-013-016-021-045-047-050-051-220800-
NORTH CENTRAL MONTANA

CITY           SKY/WX    TMP DP  RH WIND       PRES   REMARKS
HAVRE          PTCLDY    59  37  44 NE7       30.13S
LEWISTOWN      CLOUDY    56  35  45 E8        30.21S
N BAR RANCH      N/A     48  32  53 NW3       30.27S
CHINOOK          N/A     59  39  47 E7        30.14F
$$

MTZ017>020-022>027-061-062-220800-
NORTHEAST MONTANA

CITY           SKY/WX    TMP DP  RH WIND       PRES   REMARKS
JORDAN           N/A     49  32  52 CALM      30.18R
SIDNEY         CLEAR     49  34  56 NW5       30.19R
WOLF POINT     CLOUDY    53  29  39 CALM      30.18S
MALTA          PTCLDY    54  39  58 E5        30.17S
PLENTYWOOD       N/A     52  32  46 CALM      30.18S
SCOBEY           N/A     43  27  53 CALM      30.16S
$$

MTZ028>42-056>058-220800-
SOUTHCENTRAL AND SOUTHEAST MONTANA

CITY           SKY/WX    TMP DP  RH WIND       PRES   REMARKS
BAKER          CLOUDY    51  36  56 S7        30.21S
BILLINGS       CLEAR     64  33  31 N6        30.18S
LIVINGSTON     CLEAR     53  33  46 S5        30.22S
MILES CITY     MOCLDY    59  34  39 N5        30.18S
BIG TIMBER     CLEAR     57  36  44 SE3       30.25R
EKALAKA          N/A     57  33  40 SE2       30.18S
LAUREL           N/A     63  31  30 N3        30.15F
$$

REGIONAL REPORTS...DAKOTAS

CITY           SKY/WX    TMP DP  RH WIND       PRES   REMARKS
WILLISTON      CLEAR     42  36  79 CALM      30.18R
MINOT          CLEAR     52  42  69 SW9       30.12S
DICKINSON      CLEAR     49  37  63 NW5       30.17S
BEACH            N/A     45  37  76 CALM      30.23S
CROSBY           N/A     45  36  70 SW6       30.16S
TIOGA            N/A     46  37  71 W3        30.18S
WATFORD CITY     N/A     43  37  81 SW5       30.17S
BISMARCK       CLEAR     51  46  83 W3        30.14S
GRAND FORKS    CLEAR     51  49  92 W7        29.99S
FARGO          CLEAR     55  53  93 NW7       30.01R
BUFFALO SD       N/A     60  39  45 VRB3      30.15S
RAPID CITY     CLEAR     53  42  66 NW7       30.22S
$$

REGIONAL REPORTS...WYOMING/IDAHO/WASHINGTON

CITY           SKY/WX    TMP DP  RH WIND       PRES   REMARKS
GILLETTE       CLEAR     50  35  56 S6        30.26R
SHERIDAN       CLEAR     50  40  68 S3        30.22F
BUFFALO WY     CLEAR     60  31  33 SW5       30.29S
CODY           CLEAR     60  38  43 SW5       30.27S
YELLOWSTONE LA   N/A     41  34  76 CALM      30.43S
IDAHO FALLS    CLEAR     52  43  71 CALM      30.21R
SALMON         CLEAR     51  40  65 SE3       30.17R
BOISE          CLEAR     67  40  37 SE7       30.06R
SPOKANE        CLEAR     69  42  37 CALM      30.07S
$$

REGIONAL REPORTS...ALBERTA

CITY           SKY/WX    TMP DP  RH WIND       PRES   REMARKS
EDMONTON       CLOUDY    61  54  77 W6        30.08S
CALGARY        MOCLDY    59  41  51 CALM      30.15R
LETHBRIDGE     CLEAR     48  37  66 S5G24     30.11S
MEDICINE HAT   CLEAR     57  41  54 E2        30.11S
$$

REGIONAL REPORTS...SASKATCHEWAN

CITY           SKY/WX    TMP DP  RH WIND       PRES   REMARKS
SWIFT CURRENT  CLEAR     50  34  53 S8        30.15S
REGINA         CLEAR     43  34  70 SW6       30.14S
SASKATOON      CLEAR     48  43  81 CALM      30.12S
$$



USA.gov is the U.S. government's official web portal to all federal, state and local government web resources and services.